Chignik, AK

5:57 PM AKDT on July 23, 2016 (GMT -0800)
Chignik

Weather History for PAJC - October, 2011

Change the Weather History Date:

Thursday, October 13, 2011

  Actual Average Record
Temperature  
Mean Temperature 46 °F -  
Max Temperature 53 °F 44 °F 53 °F (2011)
Min Temperature 39 °F 38 °F 32 °F (1996)
Degree Days  
Heating Degree Days 19    
Moisture  
Dew Point 38 °F    
Average Humidity 74    
Maximum Humidity 87    
Minimum Humidity 61    
Precipitation  
Precipitation 0.00 in - - ()
Sea Level Pressure  
Sea Level Pressure 29.83 in    
Wind  
Wind Speed 3 mph (SSE)    
Max Wind Speed 22 mph    
Max Gust Speed 48 mph    
Averages and records for this station are not official NWS values.
T = Trace of Precipitation, MM = Missing Value Source: NWS Daily Summary

Daily Weather History Graph

Daily Weather History Graph

Search for Another Location

Airport or City:

Trip Planner

Search our weather history database for the weather conditions in past years. The results will help you decide how hot, cold, wet, or windy it might be!

Date:

Astronomy

Oct. 13, 2011 Rise Set
Actual Time 9:01 AM AKDT 7:37 PM AKDT
Civil Twilight 8:23 AM AKDT 8:14 PM AKDT
Nautical Twilight 7:39 AM AKDT 8:58 PM AKDT
Astronomical Twilight 6:56 AM AKDT 9:41 PM AKDT
Moon 7:44 PM AKDT (10/13) 11:16 AM AKDT (10/13)
Length of Visible Light 11h 51m
Length of Day
10h 36m
Full, 97% of the Moon is Illuminated
Oct 13
Full
Oct 19
Last Quarter
Oct 26
New
Nov 2
First Quarter
Nov 10
Full

Hourly Weather History & Observations

Time (AKDT) Temp. Windchill Dew Point Humidity Pressure Visibility Wind Dir Wind Speed Gust Speed Precip Events Conditions
12:16 AM 44.6 °F - 32.0 °F 61% 30.02 in - Calm Calm - N/A   Overcast
12:36 AM 44.6 °F - 32.0 °F 61% 30.02 in - Calm Calm - N/A   Overcast
12:56 AM 42.8 °F - 33.8 °F 70% 30.02 in - Calm Calm - N/A   Overcast
1:16 AM 42.8 °F - 33.8 °F 70% 30.02 in - Calm Calm - N/A   Overcast
1:36 AM 44.6 °F 43.1 °F 32.0 °F 61% 30.02 in - WSW 3.5 mph - N/A   Overcast
1:56 AM 42.8 °F 41.1 °F 33.8 °F 70% 30.02 in - South 3.5 mph - N/A   Overcast
2:16 AM 44.6 °F 43.1 °F 33.8 °F 66% 30.01 in - South 3.5 mph - N/A   Overcast
2:36 AM 42.8 °F - 33.8 °F 70% 30.00 in - Calm Calm - N/A   Mostly Cloudy
2:56 AM 42.8 °F - 33.8 °F 70% 30.01 in - Calm Calm - N/A   Mostly Cloudy
3:16 AM 42.8 °F - 33.8 °F 70% 30.00 in - Calm Calm - N/A   Overcast
3:36 AM 42.8 °F 41.1 °F 33.8 °F 70% 30.00 in - South 3.5 mph - N/A   Overcast
3:56 AM 42.8 °F - 35.6 °F 76% 29.99 in - Calm Calm - N/A   Overcast
4:16 AM 42.8 °F 41.1 °F 33.8 °F 70% 29.99 in - SSE 3.5 mph - N/A   Overcast
4:36 AM 42.8 °F - 33.8 °F 70% 29.99 in - Calm Calm - N/A   Scattered Clouds
4:56 AM 42.8 °F 40.1 °F 33.8 °F 70% 29.99 in - South 4.6 mph - N/A   Partly Cloudy
5:16 AM 42.8 °F - 33.8 °F 70% 29.99 in - Calm Calm - N/A   Mostly Cloudy
5:36 AM 42.8 °F - 35.6 °F 76% 29.99 in - Calm Calm - N/A   Mostly Cloudy
5:56 AM 42.8 °F - 33.8 °F 70% 29.99 in - Calm Calm - N/A   Partly Cloudy
6:16 AM 41.0 °F 39.0 °F 33.8 °F 76% 29.98 in - SSE 3.5 mph - N/A   Clear
6:36 AM 39.2 °F 37.0 °F 33.8 °F 81% 29.99 in - South 3.5 mph - N/A   Clear
6:56 AM 41.0 °F - 33.8 °F 76% 29.98 in - Calm Calm - N/A   Mostly Cloudy
7:16 AM 42.8 °F - 33.8 °F 70% 29.97 in - Calm Calm - N/A   Scattered Clouds
7:36 AM 41.0 °F 39.0 °F 35.6 °F 81% 29.97 in - SW 3.5 mph - N/A   Clear
7:56 AM 39.2 °F - 33.8 °F 81% 29.97 in - Calm Calm - N/A   Clear
8:16 AM 41.0 °F 39.0 °F 33.8 °F 76% 29.97 in - SSE 3.5 mph - N/A   Clear
8:36 AM 41.0 °F - 33.8 °F 76% 29.96 in - Calm Calm - N/A   Clear
8:56 AM 39.2 °F - 33.8 °F 81% 29.96 in - Calm Calm - N/A   Clear
9:16 AM 39.2 °F - 33.8 °F 81% 29.96 in - Calm Calm - N/A   Mostly Cloudy
9:36 AM 39.2 °F - 35.6 °F 87% 29.96 in - Calm Calm - N/A   Unknown
9:56 AM 39.2 °F - 35.6 °F 87% 29.96 in - Calm Calm - N/A   Mostly Cloudy
10:16 AM 39.2 °F 37.0 °F 35.6 °F 87% 29.96 in - South 3.5 mph - N/A   Unknown
10:36 AM 42.8 °F - 35.6 °F 76% 29.94 in - Calm Calm - N/A   Overcast
10:56 AM 42.8 °F - 37.4 °F 81% 29.94 in - Calm Calm - N/A   Overcast
11:16 AM 42.8 °F - 37.4 °F 81% 29.92 in - Calm Calm - N/A   Overcast
11:36 AM 42.8 °F 41.1 °F 37.4 °F 81% 29.92 in - SSW 3.5 mph - N/A   Overcast
11:56 AM 44.6 °F - 37.4 °F 76% 29.90 in - Calm Calm - N/A   Overcast
12:16 PM 44.6 °F - 37.4 °F 76% 29.89 in - Calm Calm - N/A   Overcast
12:36 PM 44.6 °F 43.1 °F 39.2 °F 81% 29.88 in - West 3.5 mph - N/A   Overcast
1:16 PM 46.4 °F 42.9 °F 39.2 °F 76% 29.86 in - ENE 6.9 mph - N/A   Overcast
1:36 PM 46.4 °F 42.9 °F 42.8 °F 87% 29.85 in - NE 6.9 mph - N/A   Overcast
1:56 PM 48.2 °F - 42.8 °F 82% 29.83 in - NE 8.1 mph - N/A   Overcast
2:16 PM 48.2 °F - 42.8 °F 82% 29.82 in - Calm Calm - N/A   Overcast
2:36 PM 48.2 °F - 42.8 °F 82% 29.81 in - Calm Calm - N/A   Mostly Cloudy
2:56 PM 48.2 °F - 42.8 °F 82% 29.79 in - Calm Calm - N/A   Overcast
3:16 PM 46.4 °F - 42.8 °F 87% 29.78 in - Calm Calm - N/A   Unknown
3:36 PM 48.2 °F - 42.8 °F 82% 29.76 in - Calm Calm - N/A   Overcast
3:56 PM 48.2 °F - 42.8 °F 82% 29.74 in - North 6.9 mph - N/A   Overcast
4:16 PM 48.2 °F - 42.8 °F 82% 29.72 in - East 8.1 mph - N/A   Overcast
4:36 PM 51.8 °F - 42.8 °F 71% 29.70 in - WNW 4.6 mph - N/A   Overcast
4:56 PM 50.0 °F - 42.8 °F 76% 29.68 in - Calm Calm - N/A   Overcast
5:16 PM 51.8 °F - 41.0 °F 67% 29.66 in - South 17.3 mph 33.4 mph N/A   Overcast
5:36 PM 51.8 °F - 39.2 °F 62% 29.63 in - South 21.9 mph 32.2 mph N/A   Overcast
5:56 PM 51.8 °F - 41.0 °F 67% 29.62 in - South 15.0 mph 35.7 mph N/A   Overcast
6:16 PM 51.8 °F - 41.0 °F 67% 29.60 in - SE 9.2 mph 31.1 mph N/A   Overcast
6:36 PM 51.8 °F - 41.0 °F 67% 29.56 in - South 19.6 mph 27.6 mph N/A   Overcast
6:56 PM 51.8 °F - 41.0 °F 67% 29.53 in - South 18.4 mph 27.6 mph N/A   Overcast
7:16 PM 51.8 °F - 41.0 °F 67% 29.50 in - SSE 5.8 mph - N/A   Overcast
7:36 PM 53.6 °F - 41.0 °F 62% 29.47 in - ESE 9.2 mph 34.5 mph N/A   Mostly Cloudy
7:56 PM 53.6 °F - 42.8 °F 67% 29.44 in - SE 12.7 mph 41.4 mph N/A   Overcast
8:16 PM 53.6 °F - 42.8 °F 67% 29.43 in - SSW 9.2 mph 44.9 mph N/A   Overcast
8:36 PM 53.6 °F - 42.8 °F 67% 29.40 in - SSE 19.6 mph 48.3 mph N/A   Overcast
8:56 PM 53.6 °F - 42.8 °F 67% 29.41 in - South 18.4 mph 27.6 mph N/A   Overcast
9:16 PM 53.6 °F - 41.0 °F 62% 29.38 in - South 15.0 mph 36.8 mph N/A   Overcast
9:36 PM 53.6 °F - 41.0 °F 62% 29.37 in - East 9.2 mph 24.2 mph N/A   Overcast
9:56 PM 53.6 °F - 41.0 °F 62% 29.34 in - East 4.6 mph - N/A   Overcast
10:16 PM 53.6 °F - 42.8 °F 67% 29.32 in - West 11.5 mph 26.5 mph N/A   Overcast
10:36 PM 53.6 °F - 42.8 °F 67% 29.30 in - SSE 12.7 mph 28.8 mph N/A   Overcast
10:56 PM 51.8 °F - 42.8 °F 71% 29.28 in - NE 13.8 mph 24.2 mph N/A   Overcast
11:16 PM 51.8 °F - 42.8 °F 71% 29.25 in - NNE 12.7 mph - N/A   Overcast
11:36 PM 51.8 °F - 42.8 °F 71% 29.24 in - North 8.1 mph - N/A   Overcast
11:56 PM 51.8 °F - 42.8 °F 71% 29.22 in - NE 6.9 mph 21.9 mph N/A   Overcast